SCP
0 0 0 0 0 0 0 0 0 0 0 0 0 0 0 0 0 0 0 0 0 0 0 0 0 0 0 0 0 0 0 0 0 0 0 0 0 0
0 0 0 0 0 0 0 0 0 0 0 0 0 0 0 0 0 0 0 0 0 0 0 0 0 0 0 0 0 0 0 0 0 0 0 0 0 0
0 0 0 0 0 0 0 0 0 0 0 0 0 0 0 0 0 0 0 0 0 0 0 0 0 0 0 0 0 0 0 0 0 0 0 0 0 0
0 0 0 0 0 0 0 0 0 0 0 0 0 0 0 0 0 0 0 0 0 0 0 -0 -0 0 0 0 0 0 0 0 0 0 0 0 0 0
0 0 0 0 0 0 0 0 0 0 0 0 0 0 0 0 0 0 0 0 0 0 0 0 0 0 0 0 0 0 0 0 0 0 0 0 0 0
0 0 0 0 0 0 0 0 0 0 0 0 0 0 0 0 0 0 0 0 0 0 0 0 0 0 0 0 0 0 0 0 0 0 0 0 0 0
-0 -0 -0 -0 -0 -0 0 0 0 0 0 0 0 0 0 0 0 0 0 0 0 0 0 0 0 0 0 0 0 0 0 0 0 0 0 0 0 0
-0 -0 -0 -0 -0 -0 -0 -0 0 0 0 0 0 0 0 0 0 0 0 0 0 0 0 0 0 0 0 0 0 0 0 0 0 0 0 0 0 0
-0 0 0 -0 -0 -0 -0 -0 -0 0 0 0 0 0 0 0 0 0 0 0 0 0 0 0 0 0 0 0 0 0 0 0 0 0 0 0 0 0
-0 -0 -0 -0 -0 -0 0 0 0 -0 0 0 0 0 0 0 0 0 0 0 0 0 0 0 0 0 0 -0 0 0 0 0 -0 -0 0 0 0 0
0 0 -0 0 -0 -0 -0 -0 0 -0 -0 -0 0 0 0 0 0 0 0 0 0 0 0 0 0 0 0 -0 -0 -0 -0 -0 -0 -0 -0 -0 0 0
0 0 0 -0 -0 -0 0 0 -0 0 -0 -0 0 0 0 -0 -0 0 0 0 0 0 0 0 0 0 0 -0 -0 0 0 -0 -0 -0 -0 0 -0 -0
0 0 0 -0 -0 -0 0 -0 -0 -0 0 0 0 0 0 0 0 0 0 0 0 0 0 0 0 0 0 0 -0 -0 -0 -0 0 0 0 0 0 0
0 0 0 0 0 -0 0 0 0 0 0 0 0 0 0 0 0 0 0 0 0 0 0 0 0 0 0 0 0 0 -0 0 0 0 0 -0 0 0
0 0 0 0 0 0 0 0 0 0 0 0 0 0 0 0 0 0 0 0 0 0 0 0 0 0 0 0 0 0 0 0 0 -0 -0 -0 0 0
0 0 0 0 0 0 0 0 0 0 0 0 0 0 0 0 0 0 0 0 0 0 -0 -0 -0 -0 -0 0 -0 -0 -0 0 0 0 0 0 0 0
0 0 0 0 0 0 0 0 0 0 0 0 0 0 0 0 0 0 0 0 0 -0 -0 0 -0 -0 0 0 -0 0 0 0 0 0 0 0 0 0
0 0 0 0 0 0 0 0 0 0 0 0 0 0 0 0 0 0 0 0 -0 -0 -0 -0 -0 0 0 0 0 0 0 0 0 0 0 0 0 0
0 0 0 0 0 0 0 0 0 0 0 0 0 0 0 0 0 0 0 0 0 0 0 0 0 0 0 0 0 0 0 0 0 0 0 0 0 0
0 0 0 0 0 0 0 0 0 0 0 0 0 0 0 -0 -0 -0 -0 0 0 0 0 0 0 0 0 0 0 0 0 0 0 0 0 0 0 0
0 0 0 0 0 0 0 0 0 0 0 0 0 0 0 -0 -0 0 -0 0 0 0 0 0 0 0 0 0 0 0 0 0 -0 0 0 0 0 0
0 0 0 0 0 -0 -0 0 0 0 -0 -0 -0 -0 0 -0 -0 -0 -0 0 0 -0 0 0 0 0 0 0 0 0 0 0 0 0 0 -0 0 0
0 0 0 0 0 -0 0 0 0 0 0 -0 0 -0 -0 -0 -0 -0 -0 -0 -0 -0 -0 0 0 0 0 0 -0 0 0 0 -0 0 0 -0 -0 -0
Wind_Speed_500mb
16 11 7 5 3 6 10 15 13 8 15 24 17 15 16 28 33 32 31 30 29 29 25 25 22 19 19 19 19 20 22 24 24 23 23 24 23 25
18 11 9 8 8 5 11 9 9 17 15 33 27 22 16 19 29 33 32 31 27 29 27 23 20 20 22 23 25 26 28 30 31 33 36 38 41 42
29 21 15 13 12 9 11 13 16 14 21 32 26 26 24 22 25 25 29 28 26 23 25 22 19 20 22 23 24 25 27 28 31 35 39 43 47 51
46 37 29 20 16 14 6 9 9 6 24 40 43 43 42 38 34 31 28 21 16 18 11 13 16 17 17 19 22 25 29 33 36 39 42 45 48 50
44 44 40 30 24 23 19 16 24 26 47 59 57 48 48 41 39 30 23 20 20 20 20 20 22 19 15 10 4 3 7 13 18 22 26 32 38 45
35 34 35 35 30 30 26 17 30 43 45 47 46 42 36 34 23 24 23 21 24 21 23 26 25 24 20 17 10 7 4 7 10 14 18 23 24 26
30 30 31 31 33 26 28 26 13 19 21 27 34 33 28 27 33 29 27 30 23 19 20 18 16 17 20 17 14 15 12 13 15 16 20 25 30 34
31 28 25 23 27 28 27 21 30 26 29 29 32 35 29 25 31 24 23 29 25 16 13 13 10 13 18 15 22 27 24 18 14 16 16 17 22 26
35 31 28 25 24 30 23 25 20 19 20 20 24 22 22 26 31 29 30 30 25 19 15 18 6 6 10 18 27 25 24 21 22 19 17 17 17 20
33 33 32 30 28 21 25 20 24 27 25 24 25 26 26 25 26 23 27 23 19 14 15 18 16 6 8 18 26 27 25 19 22 17 14 10 12 17
32 35 30 24 20 18 21 23 23 26 26 24 24 24 21 18 17 18 19 16 17 17 11 8 11 7 8 18 26 25 13 13 12 15 14 15 15 15
33 30 33 29 21 19 16 19 21 25 21 17 19 19 15 14 11 13 17 16 14 9 8 9 10 9 10 16 25 14 13 17 17 15 15 12 11 11
42 33 29 27 24 19 19 18 20 19 15 8 10 14 11 8 9 7 7 9 13 6 9 14 8 9 9 8 18 19 18 23 16 10 8 9 10 11
40 32 30 28 20 16 15 16 18 13 10 8 9 14 17 19 14 10 7 3 2 1 3 7 8 7 3 4 11 14 16 13 9 9 12 13 14 14
36 36 34 30 37 26 25 20 19 16 17 11 14 16 15 17 18 17 17 17 20 19 14 11 8 4 1 9 5 6 15 18 16 15 14 14 16 17
40 40 32 33 31 34 25 26 20 17 15 15 15 14 14 12 16 21 25 26 23 24 25 25 22 18 19 17 14 14 11 9 16 17 15 11 17 18
32 36 37 33 36 30 27 31 24 21 17 14 14 14 12 12 15 17 17 19 22 24 24 20 19 18 16 16 13 16 26 31 30 28 23 20 22 24
31 36 32 25 34 38 28 25 24 28 17 16 15 13 11 12 18 23 18 14 13 14 15 16 16 12 13 13 17 22 24 23 26 30 32 25 25 27
32 32 38 31 26 26 26 25 22 21 17 22 16 14 12 12 15 13 6 6 8 7 5 4 5 6 7 7 7 7 5 8 14 19 23 28 26 26
27 30 33 36 30 19 20 21 14 10 14 15 16 18 15 12 10 8 7 8 9 12 9 8 6 6 8 5 4 4 6 10 8 10 11 20 23 23
24 24 26 29 32 29 21 15 14 15 16 10 9 10 10 6 4 2 7 5 7 11 9 15 17 19 14 16 17 16 13 11 11 12 5 13 18 19
22 22 22 24 27 27 23 21 14 8 5 3 1 2 6 6 2 2 8 6 8 15 15 17 15 12 8 10 16 19 20 22 23 23 21 16 15 12
19 21 20 19 20 27 22 16 14 8 9 8 1 6 3 1 2 4 6 8 11 18 16 11 14 10 4 1 3 7 7 11 17 22 25 28 27 25
Wind_Direction_500mb
42 27 360 337 315 311 283 276 254 232 205 176 147 143 144 144 171 175 172 159 158 153 148 161 163 163 176 182 192 203 211 214 225 228 230 234 238 238
33 28 36 33 41 15 354 337 286 227 207 188 164 155 155 142 141 157 159 167 162 162 167 177 183 186 202 209 217 222 228 232 239 242 245 248 251 251
37 35 36 31 34 31 357 328 318 267 216 202 197 172 161 162 146 138 115 122 127 154 170 173 188 203 214 222 230 237 241 246 248 248 251 252 252 253
39 35 36 30 27 35 34 24 318 300 203 171 151 137 129 125 123 121 111 103 83 72 127 177 200 206 216 230 239 247 253 254 256 257 258 260 259 260
34 32 30 35 39 32 41 60 125 155 159 140 124 121 127 126 130 120 104 87 73 69 83 101 112 116 116 115 128 208 257 264 266 268 267 267 265 264
36 35 29 37 39 47 46 87 91 113 120 120 123 128 126 130 136 131 119 97 86 99 102 93 96 94 95 88 73 60 359 311 297 286 283 276 273 273
37 38 36 40 42 52 58 65 110 118 121 124 118 129 128 132 130 133 123 117 107 107 107 100 78 76 72 68 48 13 342 304 291 286 284 278 272 265
33 36 37 30 46 52 60 72 80 98 119 120 121 124 131 132 130 141 147 139 123 135 122 108 53 54 53 18 6 353 352 350 319 305 315 301 300 275
38 40 40 42 57 56 63 67 84 94 98 117 121 116 138 139 148 141 147 145 133 145 154 179 182 327 9 4 351 351 343 338 333 321 328 321 316 316
38 35 39 65 55 48 51 91 96 98 100 104 106 110 119 126 144 136 143 132 123 151 151 143 209 293 329 352 345 338 330 336 334 334 319 318 323 334
38 40 40 46 50 55 70 73 108 104 105 104 100 102 107 119 123 145 154 145 131 147 152 146 194 261 298 339 344 347 336 336 17 10 5 5 10 343
45 41 46 49 54 58 78 84 103 105 118 106 92 93 92 93 114 145 179 210 175 138 182 219 190 253 324 332 352 3 57 49 45 28 27 32 13 345
40 38 49 51 51 48 54 71 92 110 116 106 83 61 42 68 102 133 144 171 210 247 206 207 238 268 259 293 12 52 59 53 58 35 15 347 319 303
42 38 40 45 44 61 73 58 65 102 125 98 71 69 67 63 72 82 94 90 291 355 123 185 228 242 264 60 38 54 58 53 26 360 347 346 352 348
42 45 52 51 47 64 70 71 68 74 83 70 82 89 81 73 58 65 88 85 95 90 85 94 85 67 298 152 154 78 70 60 51 38 25 29 29 33
45 45 48 53 51 57 67 72 72 81 86 90 90 88 90 88 80 86 99 102 100 92 88 82 73 72 106 109 100 95 82 91 71 58 42 42 52 60
51 47 53 52 46 52 54 56 68 74 79 85 81 85 92 87 106 105 112 109 107 104 103 98 95 101 100 106 104 80 80 78 69 58 51 54 60 65
46 49 41 52 46 46 63 58 58 60 70 78 86 95 101 103 124 128 114 103 103 107 103 107 102 101 100 97 109 88 78 62 58 54 48 50 59 63
42 41 42 39 35 44 61 60 55 54 60 71 74 82 105 121 138 151 119 96 125 134 135 126 125 185 186 140 166 169 96 57 46 46 46 46 56 62
34 36 33 33 32 23 30 33 43 68 78 81 70 69 82 102 127 140 134 139 152 149 128 144 143 123 93 102 155 158 114 121 34 23 32 43 51 60
30 27 24 27 28 27 24 28 16 86 77 65 77 78 71 60 74 150 180 175 192 178 171 149 131 121 98 73 86 97 94 75 47 29 56 50 52 61
28 20 16 11 22 20 24 27 32 34 62 52 281 313 292 276 289 247 223 225 179 164 148 149 154 153 124 84 79 86 86 77 68 64 69 73 70 73
11 9 9 3 354 7 14 19 15 28 357 337 259 270 279 255 175 167 205 222 189 177 171 164 169 184 193 51 69 91 85 80 77 78 81 87 88 92
Wind_Speed_850mb
16 11 7 5 3 6 10 15 13 8 15 24 17 15 16 28 33 32 31 30 29 29 25 25 22 19 19 19 19 20 22 24 24 23 23 24 23 25
18 11 9 8 8 5 11 9 9 17 15 33 27 22 16 19 29 33 32 31 27 29 27 23 20 20 22 23 25 26 28 30 31 33 36 38 41 42
29 21 15 13 12 9 11 13 16 14 21 32 26 26 24 22 25 25 29 28 26 23 25 22 19 20 22 23 24 25 27 28 31 35 39 43 47 51
46 37 29 20 16 14 6 9 9 6 24 40 43 43 42 38 34 31 28 21 16 18 11 13 16 17 17 19 22 25 29 33 36 39 42 45 48 50
44 44 40 30 24 23 19 16 24 26 47 59 57 48 48 41 39 30 23 20 20 20 20 20 22 19 15 10 4 3 7 13 18 22 26 32 38 45
35 34 35 35 30 30 26 17 30 43 45 47 46 42 36 34 23 24 23 21 24 21 23 26 25 24 20 17 10 7 4 7 10 14 18 23 24 26
30 30 31 31 33 26 28 26 13 19 21 27 34 33 28 27 33 29 27 30 23 19 20 18 16 17 20 17 14 15 12 13 15 16 20 25 30 34
31 28 25 23 27 28 27 21 30 26 29 29 32 35 29 25 31 24 23 29 25 16 13 13 10 13 18 15 22 27 24 18 14 16 16 17 22 26
35 31 28 25 24 30 23 25 20 19 20 20 24 22 22 26 31 29 30 30 25 19 15 18 6 6 10 18 27 25 24 21 22 19 17 17 17 20
33 33 32 30 28 21 25 20 24 27 25 24 25 26 26 25 26 23 27 23 19 14 15 18 16 6 8 18 26 27 25 19 22 17 14 10 12 17
32 35 30 24 20 18 21 23 23 26 26 24 24 24 21 18 17 18 19 16 17 17 11 8 11 7 8 18 26 25 13 13 12 15 14 15 15 15
33 30 33 29 21 19 16 19 21 25 21 17 19 19 15 14 11 13 17 16 14 9 8 9 10 9 10 16 25 14 13 17 17 15 15 12 11 11
42 33 29 27 24 19 19 18 20 19 15 8 10 14 11 8 9 7 7 9 13 6 9 14 8 9 9 8 18 19 18 23 16 10 8 9 10 11
40 32 30 28 20 16 15 16 18 13 10 8 9 14 17 19 14 10 7 3 2 1 3 7 8 7 3 4 11 14 16 13 9 9 12 13 14 14
36 36 34 30 37 26 25 20 19 16 17 11 14 16 15 17 18 17 17 17 20 19 14 11 8 4 1 9 5 6 15 18 16 15 14 14 16 17
40 40 32 33 31 34 25 26 20 17 15 15 15 14 14 12 16 21 25 26 23 24 25 25 22 18 19 17 14 14 11 9 16 17 15 11 17 18
32 36 37 33 36 30 27 31 24 21 17 14 14 14 12 12 15 17 17 19 22 24 24 20 19 18 16 16 13 16 26 31 30 28 23 20 22 24
31 36 32 25 34 38 28 25 24 28 17 16 15 13 11 12 18 23 18 14 13 14 15 16 16 12 13 13 17 22 24 23 26 30 32 25 25 27
32 32 38 31 26 26 26 25 22 21 17 22 16 14 12 12 15 13 6 6 8 7 5 4 5 6 7 7 7 7 5 8 14 19 23 28 26 26
27 30 33 36 30 19 20 21 14 10 14 15 16 18 15 12 10 8 7 8 9 12 9 8 6 6 8 5 4 4 6 10 8 10 11 20 23 23
24 24 26 29 32 29 21 15 14 15 16 10 9 10 10 6 4 2 7 5 7 11 9 15 17 19 14 16 17 16 13 11 11 12 5 13 18 19
22 22 22 24 27 27 23 21 14 8 5 3 1 2 6 6 2 2 8 6 8 15 15 17 15 12 8 10 16 19 20 22 23 23 21 16 15 12
19 21 20 19 20 27 22 16 14 8 9 8 1 6 3 1 2 4 6 8 11 18 16 11 14 10 4 1 3 7 7 11 17 22 25 28 27 25
Wind_Direction_850mb
42 27 360 337 315 311 283 276 254 232 205 176 147 143 144 144 171 175 172 159 158 153 148 161 163 163 176 182 192 203 211 214 225 228 230 234 238 238
33 28 36 33 41 15 354 337 286 227 207 188 164 155 155 142 141 157 159 167 162 162 167 177 183 186 202 209 217 222 228 232 239 242 245 248 251 251
37 35 36 31 34 31 357 328 318 267 216 202 197 172 161 162 146 138 115 122 127 154 170 173 188 203 214 222 230 237 241 246 248 248 251 252 252 253
39 35 36 30 27 35 34 24 318 300 203 171 151 137 129 125 123 121 111 103 83 72 127 177 200 206 216 230 239 247 253 254 256 257 258 260 259 260
34 32 30 35 39 32 41 60 125 155 159 140 124 121 127 126 130 120 104 87 73 69 83 101 112 116 116 115 128 208 257 264 266 268 267 267 265 264
36 35 29 37 39 47 46 87 91 113 120 120 123 128 126 130 136 131 119 97 86 99 102 93 96 94 95 88 73 60 359 311 297 286 283 276 273 273
37 38 36 40 42 52 58 65 110 118 121 124 118 129 128 132 130 133 123 117 107 107 107 100 78 76 72 68 48 13 342 304 291 286 284 278 272 265
33 36 37 30 46 52 60 72 80 98 119 120 121 124 131 132 130 141 147 139 123 135 122 108 53 54 53 18 6 353 352 350 319 305 315 301 300 275
38 40 40 42 57 56 63 67 84 94 98 117 121 116 138 139 148 141 147 145 133 145 154 179 182 327 9 4 351 351 343 338 333 321 328 321 316 316
38 35 39 65 55 48 51 91 96 98 100 104 106 110 119 126 144 136 143 132 123 151 151 143 209 293 329 352 345 338 330 336 334 334 319 318 323 334
38 40 40 46 50 55 70 73 108 104 105 104 100 102 107 119 123 145 154 145 131 147 152 146 194 261 298 339 344 347 336 336 17 10 5 5 10 343
45 41 46 49 54 58 78 84 103 105 118 106 92 93 92 93 114 145 179 210 175 138 182 219 190 253 324 332 352 3 57 49 45 28 27 32 13 345
40 38 49 51 51 48 54 71 92 110 116 106 83 61 42 68 102 133 144 171 210 247 206 207 238 268 259 293 12 52 59 53 58 35 15 347 319 303
42 38 40 45 44 61 73 58 65 102 125 98 71 69 67 63 72 82 94 90 291 355 123 185 228 242 264 60 38 54 58 53 26 360 347 346 352 348
42 45 52 51 47 64 70 71 68 74 83 70 82 89 81 73 58 65 88 85 95 90 85 94 85 67 298 152 154 78 70 60 51 38 25 29 29 33
45 45 48 53 51 57 67 72 72 81 86 90 90 88 90 88 80 86 99 102 100 92 88 82 73 72 106 109 100 95 82 91 71 58 42 42 52 60
51 47 53 52 46 52 54 56 68 74 79 85 81 85 92 87 106 105 112 109 107 104 103 98 95 101 100 106 104 80 80 78 69 58 51 54 60 65
46 49 41 52 46 46 63 58 58 60 70 78 86 95 101 103 124 128 114 103 103 107 103 107 102 101 100 97 109 88 78 62 58 54 48 50 59 63
42 41 42 39 35 44 61 60 55 54 60 71 74 82 105 121 138 151 119 96 125 134 135 126 125 185 186 140 166 169 96 57 46 46 46 46 56 62
34 36 33 33 32 23 30 33 43 68 78 81 70 69 82 102 127 140 134 139 152 149 128 144 143 123 93 102 155 158 114 121 34 23 32 43 51 60
30 27 24 27 28 27 24 28 16 86 77 65 77 78 71 60 74 150 180 175 192 178 171 149 131 121 98 73 86 97 94 75 47 29 56 50 52 61
28 20 16 11 22 20 24 27 32 34 62 52 281 313 292 276 289 247 223 225 179 164 148 149 154 153 124 84 79 86 86 77 68 64 69 73 70 73
11 9 9 3 354 7 14 19 15 28 357 337 259 270 279 255 175 167 205 222 189 177 171 164 169 184 193 51 69 91 85 80 77 78 81 87 88 92